Change the Weather History Date:

Sunday, February 10, 2013

  Actual Average Record
Temperature  
Mean Temperature 49 °F -  
Max Temperature 61 °F 45 °F 69 °F (1999)
Min Temperature 37 °F 29 °F -2 °F (2011)
Degree Days  
Heating Degree Days 16    
Moisture  
Dew Point 43 °F    
Average Humidity 89    
Maximum Humidity 100    
Minimum Humidity 28    
Precipitation  
Precipitation 0.27 in - - ()
Sea Level Pressure  
Sea Level Pressure 29.73 in    
Wind  
Wind Speed 15 mph (South)    
Max Wind Speed 25 mph    
Max Gust Speed 34 mph    
Visibility 9 miles    
Events Rain , Thunderstorm    
Averages and records for this station are not official NWS values.
T = Trace of Precipitation, MM = Missing Value Source: NWS Daily Summary

Daily Weather History Graph

Daily Weather History Graph

Search for Another Location

Airport or City:

Trip Planner

Search our weather history database for the weather conditions in past years. The results will help you decide how hot, cold, wet, or windy it might be!

Date:

Astronomy

Feb. 10, 2013 Rise Set
Actual Time 7:03 AM CST 5:42 PM CST
Civil Twilight 6:36 AM CST 6:09 PM CST
Nautical Twilight 6:05 AM CST 6:40 PM CST
Astronomical Twilight 5:34 AM CST 7:11 PM CST
Moon 6:54 AM CST (2/10) 6:31 PM CST (2/10)
Length of Visible Light 11h 33m
Length of Day
10h 39m
New Moon, 0% of the Moon is Illuminated
Feb 10
New Moon
Feb 17
First Quarter
Feb 25
Full
Mar 4
Last Quarter
Mar 11
New

Hourly Weather History & Observations

Time (CST) Temp. Windchill Dew Point Humidity Pressure Visibility Wind Dir Wind Speed Gust Speed Precip Events Conditions
12:21 AM 37.4 °F 27.5 °F 37.4 °F 100% 29.91 in 10.0 mi SSE 18.4 mph 23.0 mph N/A   Overcast
12:50 AM 37.4 °F 28.9 °F 37.4 °F 100% 29.91 in 10.0 mi SSE 13.8 mph 23.0 mph N/A Rain Light Rain
12:55 AM 38.1 °F 29.5 °F 37.2 °F 97% 29.91 in 10.0 mi SSE 15.0 mph 23.0 mph 0.00 in Rain Light Rain
1:01 AM 37.4 °F 28.9 °F 37.4 °F 100% 29.92 in 9.0 mi SSE 13.8 mph 20.7 mph N/A Rain Light Rain
1:11 AM 37.4 °F 29.8 °F 37.4 °F 100% 29.90 in 10.0 mi SSE 11.5 mph - N/A   Overcast
1:17 AM 39.2 °F 32.0 °F 37.4 °F 93% 29.91 in 10.0 mi SSE 11.5 mph - N/A   Overcast
1:26 AM 39.2 °F 31.2 °F 37.4 °F 93% 29.90 in 10.0 mi SSE 13.8 mph 19.6 mph N/A   Overcast
1:55 AM 39.0 °F 30.3 °F 38.1 °F 97% 29.87 in 10.0 mi SSE 16.1 mph 21.9 mph 0.01 in   Overcast
2:30 AM 39.2 °F 31.2 °F 39.2 °F 100% 29.85 in 10.0 mi SSE 13.8 mph - N/A   Overcast
2:37 AM 39.2 °F 30.2 °F 39.2 °F 100% 29.84 in 10.0 mi SSE 17.3 mph - N/A   Overcast
2:55 AM 40.3 °F 32.6 °F 38.3 °F 93% 29.83 in 10.0 mi SSE 13.8 mph 21.9 mph N/A   Overcast
3:46 AM 41.0 °F 35.8 °F 39.2 °F 93% 29.80 in 10.0 mi SSE 8.1 mph - N/A   Overcast
3:55 AM 41.2 °F 36.6 °F 39.0 °F 92% 29.81 in 10.0 mi SSE 6.9 mph - N/A   Overcast
4:07 AM 41.0 °F 35.2 °F 39.2 °F 93% 29.82 in 9.0 mi SSE 9.2 mph - N/A   Light Drizzle
4:19 AM 41.0 °F 36.4 °F 41.0 °F 100% 29.81 in 8.0 mi Variable 6.9 mph - N/A Rain Light Rain
4:31 AM 41.0 °F 34.3 °F 41.0 °F 100% 29.80 in 7.0 mi SSE 11.5 mph - N/A Rain Light Rain
4:37 AM 41.0 °F 34.7 °F 41.0 °F 100% 29.79 in 5.0 mi SSE 10.4 mph - N/A Rain Light Rain
4:46 AM 41.0 °F 34.3 °F 41.0 °F 100% 29.78 in 5.0 mi SSE 11.5 mph - N/A   Light Drizzle
4:48 AM 41.0 °F 33.9 °F 41.0 °F 100% 29.78 in 5.0 mi SSE 12.7 mph - N/A   Overcast
4:55 AM 41.5 °F 34.2 °F 41.2 °F 99% 29.76 in 5.0 mi SSE 13.8 mph - 0.01 in   Overcast
4:57 AM 41.0 °F 33.1 °F 41.0 °F 100% 29.76 in 5.0 mi SE 15.0 mph - N/A Rain Light Rain
5:10 AM 42.8 °F 35.4 °F 42.8 °F 100% 29.77 in 5.0 mi SSE 15.0 mph 25.3 mph N/A   Overcast
5:36 AM 42.8 °F 35.1 °F 42.8 °F 100% 29.75 in 5.0 mi SSE 16.1 mph 23.0 mph N/A   Overcast
5:45 AM 42.8 °F 35.4 °F 42.8 °F 100% 29.76 in 6.0 mi SSE 15.0 mph 24.2 mph N/A Rain Light Rain
5:52 AM 42.8 °F 35.8 °F 42.8 °F 100% 29.76 in 6.0 mi South 13.8 mph 23.0 mph N/A Rain Light Rain
5:55 AM 43.5 °F 36.7 °F 43.5 °F 100% 29.77 in 6.0 mi South 13.8 mph 23.0 mph 0.01 in Rain Light Rain
5:59 AM 44.6 °F 37.4 °F 44.6 °F 100% 29.77 in 6.0 mi South 16.1 mph 21.9 mph N/A Rain , Thunderstorm Light Thunderstorms and Rain
6:14 AM 44.6 °F 37.8 °F 44.6 °F 100% 29.76 in 5.0 mi SSE 15.0 mph 24.2 mph N/A   Overcast
6:40 AM 44.6 °F 36.6 °F 44.6 °F 100% 29.74 in 3.0 mi SSE 19.6 mph 27.6 mph N/A Rain , Thunderstorm Rain
6:44 AM 44.6 °F 36.4 °F 44.6 °F 100% 29.74 in 4.0 mi SSE 20.7 mph 27.6 mph N/A Rain , Thunderstorm Rain
6:55 AM 44.6 °F 35.9 °F 44.6 °F 100% 29.73 in 5.0 mi SSE 23.0 mph 31.1 mph 0.16 in Rain Light Rain
7:02 AM 44.6 °F 36.4 °F 44.6 °F 100% 29.72 in 9.0 mi SSE 20.7 mph 28.8 mph N/A   Overcast
7:04 AM 44.6 °F 35.5 °F 44.6 °F 100% 29.72 in 9.0 mi SSE 25.3 mph 34.5 mph N/A Rain Light Rain
7:13 AM 44.6 °F 35.7 °F 44.6 °F 100% 29.70 in 4.0 mi SSE 24.2 mph 34.5 mph N/A   Overcast
7:16 AM 44.6 °F 36.4 °F 44.6 °F 100% 29.70 in 3.0 mi SSE 20.7 mph 32.2 mph N/A   Overcast
7:19 AM 44.6 °F 35.7 °F 44.6 °F 100% 29.70 in 3.0 mi SSE 24.2 mph 32.2 mph N/A   Overcast
7:24 AM 44.6 °F 36.6 °F 44.6 °F 100% 29.70 in 4.0 mi SSE 19.6 mph 32.2 mph N/A Rain Light Rain
7:35 AM 46.4 °F 40.4 °F 46.4 °F 100% 29.69 in 10.0 mi SSE 13.8 mph 26.5 mph N/A   Mostly Cloudy
7:55 AM 45.7 °F 38.6 °F 45.7 °F 100% 29.70 in 10.0 mi SSE 17.3 mph 24.2 mph 0.07 in   Overcast
8:16 AM 46.4 °F 38.5 °F 46.4 °F 100% 29.68 in 10.0 mi SSE 21.9 mph 29.9 mph N/A Rain Light Rain
8:18 AM 46.4 °F 38.7 °F 46.4 °F 100% 29.68 in 9.0 mi SSE 20.7 mph 29.9 mph N/A Rain Light Rain
8:34 AM 46.4 °F 41.1 °F 46.4 °F 100% 29.67 in 10.0 mi South 11.5 mph 28.8 mph N/A   Mostly Cloudy
8:39 AM 46.4 °F 40.7 °F 46.4 °F 100% 29.66 in 10.0 mi SSE 12.7 mph 23.0 mph N/A   Mostly Cloudy
8:43 AM 48.2 °F - 48.2 °F 100% 29.65 in 10.0 mi SSE 13.8 mph 23.0 mph N/A   Mostly Cloudy
8:55 AM 48.0 °F - 48.0 °F 100% 29.65 in 10.0 mi South 13.8 mph 23.0 mph 0.01 in   Mostly Cloudy
9:27 AM 48.2 °F - 48.2 °F 100% 29.68 in 10.0 mi South 10.4 mph 24.2 mph N/A Rain Light Rain
9:40 AM 48.2 °F - 48.2 °F 100% 29.67 in 10.0 mi South 13.8 mph 21.9 mph N/A   Overcast
9:55 AM 49.1 °F - 49.1 °F 100% 29.67 in 10.0 mi SSE 15.0 mph 21.9 mph 0.00 in   Overcast
9:58 AM 50.0 °F - 50.0 °F 100% 29.66 in 10.0 mi SSE 13.8 mph 21.9 mph N/A   Overcast
10:09 AM 50.0 °F - 50.0 °F 100% 29.65 in 10.0 mi SSE 16.1 mph 29.9 mph N/A   Overcast
10:19 AM 50.0 °F - 50.0 °F 100% 29.65 in 10.0 mi South 17.3 mph 25.3 mph N/A   Overcast
10:25 AM 50.0 °F - 50.0 °F 100% 29.65 in 10.0 mi South 15.0 mph 27.6 mph N/A   Overcast
10:36 AM 51.8 °F - 51.8 °F 100% 29.65 in 10.0 mi South 11.5 mph 25.3 mph N/A   Overcast
10:39 AM 51.8 °F - 51.8 °F 100% 29.65 in 10.0 mi South 16.1 mph 25.3 mph N/A   Overcast
10:51 AM 51.8 °F - 50.0 °F 94% 29.65 in 10.0 mi South 13.8 mph 27.6 mph N/A   Overcast
10:55 AM 51.3 °F - 50.9 °F 99% 29.65 in 10.0 mi South 15.0 mph 25.3 mph N/A   Overcast
11:29 AM 51.8 °F - 51.8 °F 100% 29.64 in 10.0 mi South 11.5 mph 19.6 mph N/A   Overcast
11:39 AM 51.8 °F - 51.8 °F 100% 29.64 in 10.0 mi South 10.4 mph 20.7 mph N/A   Overcast
11:48 AM 53.6 °F - 51.8 °F 94% 29.64 in 10.0 mi South 15.0 mph 25.3 mph N/A   Overcast
11:55 AM 52.9 °F - 52.3 °F 98% 29.64 in 10.0 mi SSW 10.4 mph 25.3 mph N/A   Overcast
12:34 PM 55.4 °F - 51.8 °F 88% 29.62 in 10.0 mi South 16.1 mph 25.3 mph N/A   Overcast
12:49 PM 57.2 °F - 51.8 °F 82% 29.61 in 10.0 mi SSW 12.7 mph 23.0 mph N/A   Mostly Cloudy
12:50 PM 57.2 °F - 51.8 °F 82% 29.61 in 10.0 mi SSW 11.5 mph 23.0 mph N/A   Mostly Cloudy
12:52 PM 57.2 °F - 51.8 °F 82% 29.61 in 10.0 mi SSW 12.7 mph 23.0 mph N/A   Mostly Cloudy
12:55 PM 57.2 °F - 52.2 °F 83% 29.60 in 10.0 mi SSW 10.4 mph 23.0 mph N/A   Mostly Cloudy
1:08 PM 57.2 °F - 51.8 °F 82% 29.60 in 10.0 mi SSW 16.1 mph 24.2 mph N/A   Mostly Cloudy
1:21 PM 59.0 °F - 51.8 °F 77% 29.60 in 10.0 mi SW 12.7 mph 24.2 mph N/A   Mostly Cloudy
1:28 PM 59.0 °F - 50.0 °F 72% 29.60 in 10.0 mi SSW 10.4 mph 21.9 mph N/A   Mostly Cloudy
1:55 PM 61.2 °F - 48.9 °F 64% 29.58 in 10.0 mi SSW 15.0 mph 20.7 mph N/A   Scattered Clouds
2:55 PM 61.9 °F - 34.3 °F 36% 29.60 in 10.0 mi SW 16.1 mph 31.1 mph N/A   Clear
3:55 PM 59.7 °F - 26.1 °F 28% 29.64 in 10.0 mi WSW 9.2 mph 32.2 mph N/A   Clear
4:55 PM 57.4 °F - 25.2 °F 29% 29.66 in 10.0 mi SW 17.3 mph 25.3 mph N/A   Clear
5:55 PM 55.2 °F - 26.6 °F 33% 29.69 in 10.0 mi SW 11.5 mph 17.3 mph N/A   Clear
6:55 PM 53.4 °F - 27.3 °F 37% 29.73 in 10.0 mi SW 11.5 mph 21.9 mph N/A   Clear
7:55 PM 51.3 °F - 27.3 °F 40% 29.77 in 10.0 mi WSW 9.2 mph - N/A   Clear
8:55 PM 50.0 °F - 27.9 °F 42% 29.79 in 10.0 mi WSW 9.2 mph 23.0 mph N/A   Clear
9:55 PM 47.1 °F - 28.8 °F 49% 29.82 in 10.0 mi WSW 13.8 mph 28.8 mph N/A   Clear
10:55 PM 42.3 °F 35.1 °F 26.4 °F 54% 29.88 in 10.0 mi West 13.8 mph 28.8 mph N/A   Clear
11:55 PM 40.5 °F 31.8 °F 26.8 °F 58% 29.92 in 10.0 mi West 17.3 mph 33.4 mph N/A   Clear